Norfolk, NE

12:16 AM CST on February 27, 2017 (GMT -0600)
Stefan Memorial

Weather History for KOFK - December, 2012

Change the Weather History Date:

Friday, December 28, 2012

  Actual Average Record
Temperature  
Mean Temperature 12 °F 22 °F  
Max Temperature 19 °F 32 °F 62 °F (2002)
Min Temperature 5 °F 13 °F -23 °F (1924)
Degree Days  
Heating Degree Days 53 43  
Month to date heating degree days 1040 1133  
Since 1 July heating degree days 2463 2578  
Cooling Degree Days 0 0  
Month to date cooling degree days 0 0  
Year to date cooling degree days 1373 915  
Moisture  
Dew Point 11 °F    
Average Humidity 83    
Maximum Humidity 92    
Minimum Humidity 74    
Precipitation  
Precipitation 0.07 in 0.02 in 0.29 in (1948)
Month to date precipitation 1.13 0.69  
Year to date precipitation 14.50 27.35  
Snow  
Snow 1.80 in 0.20 in - ()
Month to date snowfall 7.5 5.5  
Since 1 July snowfall 7.5 10.4  
Snow Depth 4.00 in    
Sea Level Pressure  
Sea Level Pressure 30.06 in    
Wind  
Wind Speed 9 mph (NW)    
Max Wind Speed 21 mph    
Max Gust Speed 24 mph    
Visibility 5 miles    
Events Snow    
T = Trace of Precipitation, MM = Missing Value Source: NWS Daily Summary

Daily Weather History Graph

Daily Weather History Graph

Search for Another Location

Airport or City:

Trip Planner

Search our weather history database for the weather conditions in past years. The results will help you decide how hot, cold, wet, or windy it might be!

Date:

Astronomy

Dec. 28, 2012 Rise Set
Actual Time 7:57 AM CST 5:06 PM CST
Civil Twilight 7:25 AM CST 5:37 PM CST
Nautical Twilight 6:50 AM CST 6:12 PM CST
Astronomical Twilight 6:16 AM CST 6:46 PM CST
Moon 5:45 PM CST (12/28) 7:51 AM CST (12/28)
Length of Visible Light 10h 12m
Length of Day
9h 08m
Full, 100% of the Moon is Illuminated
Dec 28
Full
Jan 4
Last Quarter
Jan 11
New
Jan 18
First Quarter
Jan 26
Full

Hourly Weather History & Observations

Time (CST) Temp. Windchill Dew Point Humidity Pressure Visibility Wind Dir Wind Speed Gust Speed Precip Events Conditions
12:37 AM 19.4 °F - 15.8 °F 86% 29.96 in 2.0 mi Calm Calm - 0.00 in Snow Light Snow
12:56 AM 19.0 °F - 16.0 °F 88% 30.04 in 2.0 mi Calm Calm - 0.00 in Snow Light Snow
1:56 AM 18.0 °F - 16.0 °F 92% 30.04 in 2.5 mi Calm Calm - 0.00 in   Overcast
2:09 AM 17.6 °F - 15.8 °F 93% 29.97 in 2.5 mi Calm Calm - N/A   Overcast
2:43 AM 17.6 °F - 15.8 °F 93% 29.97 in 1.8 mi Calm Calm - 0.00 in Snow Light Snow
2:56 AM 18.0 °F - 15.1 °F 88% 30.05 in 1.8 mi Calm Calm - 0.00 in Snow Light Snow
3:10 AM 17.6 °F - 15.8 °F 93% 29.97 in 2.0 mi Calm Calm - 0.00 in Snow Light Snow
3:48 AM 17.6 °F - 15.8 °F 93% 29.97 in 2.0 mi Calm Calm - 0.00 in Snow Light Snow
3:56 AM 18.0 °F - 15.1 °F 88% 30.05 in 2.5 mi Calm Calm - 0.00 in Snow Light Snow
4:27 AM 17.6 °F - 15.8 °F 93% 29.96 in 2.0 mi Calm Calm - 0.00 in Snow Light Snow
4:56 AM 17.1 °F 11.7 °F 14.0 °F 88% 30.03 in 2.5 mi WNW 3.5 mph - 0.00 in Snow Light Snow
5:04 AM 17.6 °F 10.7 °F 14.0 °F 86% 29.96 in 3.0 mi West 4.6 mph - 0.00 in Snow Light Snow
5:56 AM 16.0 °F 7.4 °F 12.9 °F 88% 30.04 in 5.0 mi WNW 5.8 mph - 0.00 in   Overcast
6:56 AM 12.9 °F 2.6 °F 10.0 °F 88% 30.06 in 3.0 mi WNW 6.9 mph - 0.00 in Snow Light Snow
7:27 AM 12.2 °F 1.7 °F 8.6 °F 85% 29.97 in 4.0 mi WNW 6.9 mph - 0.00 in Snow Light Snow
7:56 AM 12.9 °F 3.8 °F 10.0 °F 88% 30.06 in 4.0 mi WNW 5.8 mph - 0.00 in Snow Light Snow
8:56 AM 16.0 °F 5.3 °F 12.0 °F 84% 30.06 in 3.0 mi NW 8.1 mph - 0.00 in Snow Light Snow
9:21 AM 17.6 °F 6.4 °F 12.2 °F 79% 29.99 in 2.5 mi NW 9.2 mph - 0.00 in Snow Light Snow
9:56 AM 17.1 °F 5.8 °F 12.0 °F 81% 30.08 in 2.5 mi NNW 9.2 mph - 0.00 in Snow Light Snow
10:56 AM 17.1 °F 2.5 °F 12.0 °F 81% 30.09 in 4.0 mi NNW 15.0 mph - 0.00 in Snow Light Snow
11:32 AM 17.6 °F 1.7 °F 10.4 °F 73% 30.01 in 5.0 mi NNW 18.4 mph - N/A Snow Light Snow
11:56 AM 17.1 °F 1.5 °F 10.9 °F 77% 30.08 in 4.0 mi NNW 17.3 mph - 0.00 in Snow Light Snow
12:49 PM 15.8 °F 0.9 °F 10.4 °F 79% 29.99 in 6.0 mi NNW 15.0 mph - 0.00 in   Overcast
12:56 PM 17.1 °F 2.5 °F 10.9 °F 77% 30.07 in 6.0 mi NNW 15.0 mph - 0.00 in   Haze
1:05 PM 17.6 °F 2.7 °F 10.4 °F 73% 29.98 in 7.0 mi North 16.1 mph - 0.00 in   Overcast
1:56 PM 17.1 °F 2.5 °F 10.9 °F 77% 30.07 in 8.0 mi NNW 15.0 mph - 0.00 in   Overcast
2:14 PM 17.6 °F 2.2 °F 10.4 °F 73% 29.99 in 8.0 mi NNW 17.3 mph - 0.00 in   Overcast
2:56 PM 15.1 °F -1.6 °F 10.0 °F 80% 30.09 in 3.0 mi NNW 18.4 mph - 0.00 in Snow Light Snow
3:37 PM 15.8 °F 2.7 °F 8.6 °F 73% 30.02 in 2.0 mi NW 11.5 mph - 0.00 in Snow Light Snow
3:52 PM 14.0 °F -0.2 °F 8.6 °F 79% 30.02 in 4.0 mi NW 12.7 mph 24.2 mph 0.00 in Snow Light Snow
3:56 PM 14.0 °F -0.8 °F 9.0 °F 80% 30.11 in 3.0 mi NW 13.8 mph - 0.00 in Snow Light Snow
5:56 PM 15.1 °F 1.8 °F 10.0 °F 80% 30.13 in 8.0 mi NNW 11.5 mph - N/A   Overcast
6:56 PM 15.1 °F 1.1 °F 10.0 °F 80% 30.15 in 10.0 mi NNW 12.7 mph - N/A   Overcast
7:56 PM 14.0 °F 2.0 °F 9.0 °F 80% 30.17 in 3.0 mi NW 9.2 mph - 0.00 in Snow Light Snow
8:56 PM 12.9 °F 0.7 °F 9.0 °F 84% 30.17 in 6.0 mi NNW 9.2 mph - 0.00 in   Overcast
9:43 PM 12.2 °F 2.9 °F 8.6 °F 85% 30.07 in 9.0 mi NNW 5.8 mph - 0.00 in   Overcast
9:56 PM 12.9 °F 3.8 °F 10.0 °F 88% 30.16 in 7.0 mi NW 5.8 mph - 0.00 in   Overcast
10:56 PM 12.0 °F 1.5 °F 9.0 °F 88% 30.17 in 10.0 mi NW 6.9 mph - N/A   Overcast
11:35 PM 8.6 °F - 6.8 °F 92% 30.08 in 8.0 mi Calm Calm - N/A   Scattered Clouds
11:56 PM 5.0 °F -2.1 °F 1.9 °F 87% 30.18 in 7.0 mi West 3.5 mph - N/A   Mostly Cloudy